MCF1TR LZKZ-LHBP

Flight info

Callsign MCF1TR
Flight time 0h 27m
Altitude 20000
Route LATOF DCT EDEMU
Aircraft B738/M-SDE2E3FGHIRWXY/LB1

Departure

Time 2026-04-21 22:13
Airport Košice International Airport (LZKZ)

Arrival

Time 2026-04-21 22:40
Airport Budapest Liszt Ferenc International Airport (LHBP)
Time Latitude Longitude Altitude Speed Heading
2026-04-21 21:50 48.67332 21.23849 756 ft 0 kts 233°
2026-04-21 22:11 48.67330 21.23848 756 ft 0 kts 224°
2026-04-21 22:11 48.67313 21.23867 754 ft 6 kts 109°
2026-04-21 22:11 48.67297 21.23976 756 ft 16 kts 103°
2026-04-21 22:11 48.67269 21.24153 756 ft 16 kts 103°
2026-04-21 22:12 48.67248 21.24292 756 ft 13 kts 103°
2026-04-21 22:12 48.67226 21.24419 756 ft 10 kts 125°
2026-04-21 22:12 48.67184 21.24425 755 ft 0 kts 193°
2026-04-21 22:12 48.67182 21.24424 755 ft 2 kts 193°
2026-04-21 22:13 48.67048 21.24378 759 ft 54 kts 193°
2026-04-21 22:13 48.66416 21.24157 755 ft 129 kts 193°
2026-04-21 22:13 48.65376 21.23789 1020 ft 165 kts 193°
2026-04-21 22:13 48.64295 21.23387 1965 ft 162 kts 193°
2026-04-21 22:14 48.63142 21.22986 2632 ft 179 kts 192°
2026-04-21 22:14 48.61802 21.22527 2993 ft 215 kts 192°
2026-04-21 22:14 48.60307 21.22008 3576 ft 225 kts 192°
2026-04-21 22:14 48.58762 21.21472 4277 ft 230 kts 192°
2026-04-21 22:15 48.57188 21.20928 5068 ft 234 kts 192°
2026-04-21 22:15 48.55599 21.20376 5987 ft 234 kts 194°
2026-04-21 22:15 48.54149 21.19230 6705 ft 246 kts 223°
2026-04-21 22:15 48.52865 21.17308 7012 ft 275 kts 227°
2026-04-21 22:16 48.51490 21.15187 7694 ft 287 kts 227°
2026-04-21 22:16 48.50134 21.12955 8622 ft 289 kts 232°
2026-04-21 22:16 48.48886 21.10581 9623 ft 290 kts 234°
2026-04-21 22:16 48.47657 21.08149 10462 ft 296 kts 235°
2026-04-21 22:17 48.46490 21.05446 10723 ft 320 kts 241°
2026-04-21 22:17 48.45366 21.02483 11205 ft 334 kts 243°
2026-04-21 22:17 48.44191 20.99297 11358 ft 359 kts 243°
2026-04-21 22:17 48.42938 20.95908 11609 ft 380 kts 242°
2026-04-21 22:18 48.41625 20.92396 12164 ft 389 kts 242°
2026-04-21 22:18 48.40279 20.88840 12908 ft 393 kts 242°
2026-04-21 22:18 48.38911 20.85259 13696 ft 397 kts 241°
2026-04-21 22:18 48.37522 20.81647 14397 ft 402 kts 241°
2026-04-21 22:19 48.36109 20.77986 15160 ft 405 kts 241°
2026-04-21 22:19 48.34689 20.74320 15949 ft 408 kts 241°
2026-04-21 22:19 48.33257 20.70629 16723 ft 411 kts 241°
2026-04-21 22:19 48.31811 20.66907 17460 ft 415 kts 241°
2026-04-21 22:20 48.30347 20.63143 18211 ft 417 kts 241°
2026-04-21 22:20 48.28874 20.59385 18911 ft 420 kts 240°
2026-04-21 22:20 48.27134 20.55830 19478 ft 426 kts 231°
2026-04-21 22:20 48.25173 20.52462 20029 ft 431 kts 229°
2026-04-21 22:21 48.23137 20.49056 20134 ft 438 kts 229°
2026-04-21 22:21 48.21078 20.45626 20140 ft 445 kts 229°
2026-04-21 22:21 48.19006 20.42159 20140 ft 446 kts 229°
2026-04-21 22:21 48.16951 20.38698 20134 ft 444 kts 230°
2026-04-21 22:22 48.14906 20.35234 20140 ft 443 kts 230°
2026-04-21 22:22 48.12873 20.31780 20142 ft 443 kts 230°
2026-04-21 22:22 48.10839 20.28322 20139 ft 442 kts 230°
2026-04-21 22:22 48.08803 20.24859 20138 ft 442 kts 230°
2026-04-21 22:23 48.06778 20.21419 20135 ft 441 kts 230°
2026-04-21 22:23 48.04746 20.17970 20139 ft 441 kts 230°
2026-04-21 22:23 48.02720 20.14539 20046 ft 438 kts 230°
2026-04-21 22:23 48.00720 20.11156 19433 ft 430 kts 230°
2026-04-21 22:24 47.98750 20.07832 18778 ft 424 kts 230°
2026-04-21 22:24 47.96809 20.04559 18038 ft 419 kts 230°
2026-04-21 22:24 47.94888 20.01324 17318 ft 413 kts 230°
2026-04-21 22:24 47.93003 19.98152 16634 ft 406 kts 230°
2026-04-21 22:25 47.91162 19.95059 15958 ft 401 kts 230°
2026-04-21 22:25 47.89298 19.91932 15282 ft 396 kts 230°
2026-04-21 22:25 47.87502 19.88918 14625 ft 391 kts 230°
2026-04-21 22:25 47.85704 19.85908 13981 ft 387 kts 230°
2026-04-21 22:26 47.83920 19.82923 13271 ft 383 kts 230°
2026-04-21 22:26 47.82160 19.79981 12643 ft 378 kts 230°
2026-04-21 22:26 47.80424 19.77084 11986 ft 374 kts 230°
2026-04-21 22:26 47.78699 19.74208 11364 ft 370 kts 230°
2026-04-21 22:27 47.77014 19.71402 11172 ft 356 kts 230°
2026-04-21 22:27 47.75396 19.68712 11022 ft 346 kts 230°
2026-04-21 22:27 47.73805 19.66072 10875 ft 338 kts 230°
2026-04-21 22:27 47.72255 19.63498 10738 ft 330 kts 230°
2026-04-21 22:28 47.70749 19.60999 10594 ft 319 kts 230°
2026-04-21 22:28 47.69282 19.58570 10372 ft 311 kts 230°
2026-04-21 22:28 47.67861 19.56217 10226 ft 302 kts 230°
2026-04-21 22:28 47.66481 19.53937 10091 ft 293 kts 230°
2026-04-21 22:29 47.65134 19.51710 9835 ft 289 kts 230°
2026-04-21 22:29 47.63795 19.49498 9523 ft 286 kts 230°
2026-04-21 22:29 47.62471 19.47311 9238 ft 284 kts 230°
2026-04-21 22:29 47.61152 19.45137 8960 ft 282 kts 230°
2026-04-21 22:30 47.59847 19.42985 8672 ft 280 kts 229°
2026-04-21 22:30 47.58548 19.40846 8379 ft 278 kts 229°
2026-04-21 22:30 47.57256 19.38721 8111 ft 277 kts 229°
2026-04-21 22:30 47.55972 19.36608 7827 ft 275 kts 229°
2026-04-21 22:31 47.54634 19.34695 7649 ft 270 kts 212°
2026-04-21 22:31 47.52893 19.33867 7538 ft 260 kts 181°
2026-04-21 22:31 47.51137 19.34302 7296 ft 256 kts 156°
2026-04-21 22:31 47.49655 19.35664 7055 ft 250 kts 134°
2026-04-21 22:32 47.48473 19.37537 6828 ft 247 kts 130°
2026-04-21 22:32 47.47323 19.39418 6581 ft 246 kts 130°
2026-04-21 22:32 47.46172 19.41289 6308 ft 245 kts 130°
2026-04-21 22:32 47.45026 19.43140 6063 ft 244 kts 130°
2026-04-21 22:33 47.43882 19.44991 5811 ft 243 kts 130°
2026-04-21 22:33 47.42743 19.46828 5552 ft 243 kts 130°
2026-04-21 22:33 47.41597 19.48672 5298 ft 243 kts 130°
2026-04-21 22:33 47.40456 19.50504 5049 ft 243 kts 130°
2026-04-21 22:34 47.39310 19.52340 4784 ft 243 kts 130°
2026-04-21 22:34 47.38153 19.54191 4502 ft 242 kts 129°
2026-04-21 22:34 47.36918 19.55849 4380 ft 241 kts 148°
2026-04-21 22:34 47.35331 19.56361 4280 ft 238 kts 182°
2026-04-21 22:35 47.33797 19.55655 4197 ft 227 kts 208°
2026-04-21 22:35 47.32583 19.54279 4094 ft 214 kts 221°
2026-04-21 22:35 47.31520 19.52836 3953 ft 204 kts 222°
2026-04-21 22:35 47.30624 19.51267 3746 ft 199 kts 249°
2026-04-21 22:36 47.31058 19.48339 3519 ft 175 kts 311°
2026-04-21 22:36 47.31997 19.46385 3245 ft 176 kts 311°
2026-04-21 22:36 47.32493 19.45424 3130 ft 174 kts 315°
2026-04-21 22:37 47.33545 19.43620 3025 ft 175 kts 317°
2026-04-21 22:37 47.34088 19.42729 2929 ft 173 kts 317°
2026-04-21 22:37 47.35134 19.41020 2687 ft 164 kts 317°
2026-04-21 22:37 47.35892 19.39787 2436 ft 161 kts 317°
2026-04-21 22:38 47.36402 19.38958 2287 ft 162 kts 317°
2026-04-21 22:38 47.37160 19.37731 2049 ft 161 kts 317°
2026-04-21 22:38 47.37893 19.36541 1850 ft 159 kts 317°
2026-04-21 22:38 47.38635 19.35338 1631 ft 161 kts 317°
2026-04-21 22:39 47.39398 19.34101 1391 ft 161 kts 316°
2026-04-21 22:39 47.40134 19.32907 1152 ft 157 kts 315°
2026-04-21 22:39 47.40857 19.31735 934 ft 152 kts 314°
2026-04-21 22:39 47.41556 19.30591 724 ft 149 kts 313°
2026-04-21 22:40 47.42249 19.29452 510 ft 146 kts 314°
2026-04-21 22:40 47.42910 19.28397 453 ft 127 kts 313°
2026-04-21 22:40 47.43366 19.27658 465 ft 68 kts 312°
2026-04-21 22:40 47.43591 19.27297 472 ft 42 kts 313°
2026-04-21 22:41 47.43735 19.26957 470 ft 33 kts 288°
2026-04-21 22:41 47.43765 19.26776 461 ft 16 kts 282°
2026-04-21 22:41 47.43780 19.26673 460 ft 8 kts 282°
2026-04-21 22:41 47.43794 19.26576 458 ft 11 kts 282°
2026-04-21 22:42 47.43787 19.26471 456 ft 11 kts 235°
2026-04-21 22:42 47.43732 19.26392 457 ft 9 kts 223°
2026-04-21 22:42 47.43677 19.26350 457 ft 9 kts 171°
2026-04-21 22:42 47.43626 19.26414 457 ft 10 kts 132°
2026-04-21 22:43 47.43578 19.26491 457 ft 8 kts 133°
2026-04-21 22:43 47.43545 19.26517 457 ft 5 kts 196°
2026-04-21 22:43 47.43515 19.26483 457 ft 4 kts 222°
2026-04-21 22:43 47.43511 19.26478 457 ft 0 kts 222°